Temperature
14 14 14 14 15 15 15 15 15 15 15 15 15 15 15 15 15 15 15 15 15 15 15 15 15 15 15 15 15 15 15 14 14 14 14 14 14 14 14 14 14 14 14
14 14 14 14 14 14 14 15 15 15 15 15 15 15 15 15 15 15 15 15 15 15 15 15 15 15 14 14 14 14 14 14 14 14 14 14 14 14 14 14 14 14 14
14 14 14 14 14 14 14 14 14 15 14 15 15 15 15 15 15 15 15 15 15 15 15 15 15 14 14 14 14 14 14 14 14 14 14 14 13 13 13 13 13 14 14
14 14 14 14 14 14 14 14 14 14 14 15 15 15 15 15 15 14 14 14 14 14 14 14 14 14 14 14 14 14 14 14 14 14 13 13 13 13 13 13 13 13 13
14 14 14 14 14 14 14 14 14 14 14 14 14 14 14 14 14 14 14 14 14 14 14 14 14 14 14 14 14 14 14 14 14 13 13 13 13 13 13 13 13 13 13
14 14 14 14 13 13 13 14 14 14 14 14 14 14 14 14 14 14 14 14 14 14 14 14 14 14 14 14 13 13 13 13 13 13 13 13 13 13 13 13 13 13 13
13 13 13 13 13 13 14 13 14 14 14 14 14 14 14 14 14 13 14 14 14 14 14 14 14 13 13 13 13 13 13 13 13 13 13 13 13 13 13 13 12 12 12
13 13 13 13 13 13 13 13 13 13 13 14 13 14 14 13 13 13 13 13 13 13 13 13 13 13 13 13 13 13 13 13 13 13 13 12 12 12 12 12 12 12 12
13 13 13 13 13 13 13 13 13 13 13 13 13 13 13 13 13 13 13 13 13 13 13 13 13 13 13 13 13 13 13 13 13 13 12 12 12 12 12 12 12 12 12
12 12 12 12 12 12 13 13 13 13 13 13 13 13 13 13 13 13 13 13 13 13 13 13 13 13 13 13 12 12 12 12 12 12 12 12 12 12 11 11 11 11 11
12 12 12 12 12 12 12 12 12 12 12 12 12 12 12 12 12 12 12 12 12 12 12 12 12 12 12 12 12 12 12 12 12 12 12 12 11 11 11 11 11 11 11
12 12 12 12 12 12 12 12 12 12 12 12 12 12 12 12 12 12 12 12 12 12 12 12 12 12 12 12 12 11 11 11 11 11 11 11 11 11 11 11 10 10 10
11 11 11 11 11 11 11 11 11 11 11 11 11 12 12 12 12 12 12 12 12 12 12 12 12 11 11 11 11 11 11 11 11 11 11 11 10 10 10 10 10 10 10
11 11 11 11 11 11 11 11 11 11 11 11 11 11 11 11 11 11 11 11 11 11 11 11 11 11 11 11 11 11 11 11 11 11 11 10 10 10 10 10 10 10 10
11 10 10 10 10 10 10 10 10 10 11 11 11 11 11 11 11 11 11 11 11 11 11 11 11 11 11 11 11 10 10 10 10 10 10 10 10 10 9 9 9 9 9
10 10 10 10 10 10 10 10 10 10 10 10 10 10 10 10 10 10 10 10 10 10 10 10 10 10 10 10 10 10 10 10 10 10 10 10 10 9 9 9 9 8 8
10 10 10 10 9 10 10 9 9 9 10 10 10 10 10 10 10 10 10 10 10 10 10 10 9 10 9 9 9 9 9 9 9 9 9 9 9 9 9 9 8 8 8
9 9 9 9 9 9 9 9 9 9 9 9 9 9 9 9 9 9 9 9 9 9 9 9 9 9 9 9 9 9 9 9 9 9 9 9 8 8 8 8 8 8 8
9 9 9 9 9 9 9 9 8 8 8 8 8 8 9 9 9 9 9 9 9 9 9 9 8 8 8 8 9 8 8 8 8 8 8 8 8 8 8 7 7 7 7
9 9 9 9 8 8 8 8 8 8 8 8 8 8 8 8 8 8 8 8 8 8 8 8 8 8 8 8 8 8 8 8 8 8 7 7 7 7 7 7 7 7 6
9 9 8 8 8 8 8 8 7 7 7 7 7 7 7 7 7 7 8 8 8 8 8 7 7 7 7 7 7 7 7 7 7 7 7 7 6 6 6 6 6 6 6
8 8 8 8 8 8 7 7 7 7 7 7 7 7 6 6 7 7 7 7 7 7 7 7 7 7 6 6 6 6 5 6 6 6 6 6 6 6 5 5 5 5 5
8 8 8 8 7 7 7 7 6 6 6 6 6 6 6 6 6 6 6 6 6 6 6 6 6 6 6 5 5 5 5 4 5 5 5 5 5 5 5 5 5 5 4
8 8 7 7 7 7 6 6 6 6 6 6 6 6 6 6 6 6 6 6 6 6 5 5 5 5 5 5 5 4 4 4 4 4 4 4 4 4 4 4 4 4 4
7 7 7 7 7 6 6 6 6 6 6 5 5 5 5 5 5 5 5 5 5 5 5 5 5 5 4 4 4 4 4 4 3 3 3 3 4 4 3 3 3 3 3
7 7 7 6 6 6 6 6 5 5 5 5 5 5 5 5 5 5 4 4 4 4 4 4 4 4 4 4 4 3 3 3 3 2 2 2 2 3 3 3 2 2 2
Wind_Speed
1 2 5 7 9 10 10 10 11 11 12 12 13 14 14 14 14 14 14 14 13 13 13 14 14 14 14 15 15 15 15 15 15 14 14 14 15 14 14 14 13 12 14
3 4 7 8 9 10 10 10 11 12 12 13 13 13 14 14 13 13 14 14 14 13 14 13 14 14 14 14 14 14 14 14 13 13 12 12 12 13 13 13 12 12 13
5 6 7 9 9 10 11 12 11 11 12 13 13 13 13 13 14 14 14 14 14 14 14 14 14 15 14 13 13 13 13 12 12 12 11 10 10 12 12 12 12 12 12
7 7 7 9 9 10 10 12 11 11 12 12 13 13 13 13 13 13 14 14 14 14 14 14 14 14 13 13 12 12 12 12 12 10 9 8 8 10 11 11 10 10 10
7 7 7 9 9 10 10 11 12 11 11 12 12 12 12 12 13 13 13 13 13 14 14 13 13 13 12 12 12 11 11 11 11 10 9 8 7 8 9 9 9 9 9
6 8 8 9 9 10 10 10 11 11 10 11 12 12 12 12 12 12 12 13 13 13 13 13 12 12 11 11 11 10 10 10 10 10 9 8 7 8 8 9 8 8 8
6 7 8 9 9 9 9 10 11 11 10 11 12 12 12 12 12 12 12 12 12 12 12 11 11 11 11 10 10 10 10 10 10 9 8 7 7 7 7 7 7 7 7
7 8 8 8 8 8 8 9 10 10 10 11 11 11 12 11 11 11 11 11 11 11 11 11 11 10 10 10 10 10 10 9 8 7 7 6 6 7 7 7 6 6 6
8 8 7 8 8 8 8 8 9 10 11 11 11 11 11 11 10 10 10 10 10 10 10 10 10 10 10 10 10 10 10 9 8 6 5 5 5 5 6 6 6 6 6
7 7 7 7 7 7 8 8 9 10 11 11 11 11 11 10 9 10 9 9 10 9 9 9 9 9 9 9 10 10 10 8 7 6 5 4 5 5 6 6 7 6 6
6 5 6 6 7 7 7 8 9 10 11 11 11 11 10 9 8 8 8 9 9 8 8 8 8 9 9 9 9 9 9 7 6 6 5 5 5 5 6 6 6 6 6
4 3 4 5 6 6 6 7 8 8 9 9 9 9 9 9 8 8 8 9 9 8 7 8 8 8 8 7 8 8 7 7 6 4 4 4 4 4 5 6 6 6 5
4 3 3 4 5 5 5 5 6 6 7 8 8 8 9 8 8 8 8 8 8 8 7 7 7 7 6 6 6 6 6 6 5 5 4 4 4 4 4 5 5 5 5
5 4 3 3 4 4 5 4 5 5 5 5 6 7 7 6 5 5 5 6 6 6 6 5 5 6 6 6 6 6 6 5 5 4 4 5 5 4 4 4 4 4 5
5 4 3 3 3 4 4 4 4 4 4 4 5 6 6 5 4 4 4 5 5 5 5 4 5 5 5 5 5 5 5 5 5 5 4 6 6 5 5 4 5 5 5
5 5 4 4 3 4 3 3 3 4 4 4 4 4 5 5 4 3 3 4 4 4 4 4 4 4 3 4 4 5 4 4 4 4 4 5 6 6 5 5 5 5 5
6 5 4 4 4 4 3 3 3 4 5 4 3 4 4 5 4 4 3 2 3 3 4 4 5 4 3 3 3 4 4 3 3 3 3 4 5 6 5 5 5 5 5
6 5 5 4 4 3 3 3 3 4 4 4 3 4 4 4 4 4 3 2 3 4 4 3 3 2 2 2 2 2 2 3 3 2 3 4 4 5 6 6 6 6 6
7 6 5 4 4 3 3 3 4 4 3 3 3 3 3 3 4 4 3 2 4 4 3 2 2 2 1 2 2 2 2 2 2 2 3 3 4 4 5 6 7 7 7
7 6 6 5 4 3 3 3 3 3 3 3 3 3 3 3 3 4 3 3 3 3 2 2 2 2 1 1 2 2 2 2 1 2 2 3 4 5 6 6 6 7 8
6 6 5 5 4 4 3 3 2 2 1 1 2 3 3 3 3 4 3 2 3 2 1 2 2 2 2 2 2 2 3 3 2 2 2 3 4 5 6 6 6 6 6
7 7 6 6 5 4 4 3 2 2 1 1 1 2 2 2 2 3 3 2 2 2 2 2 2 1 1 2 2 1 2 3 3 3 2 2 3 4 4 5 5 5 6
7 7 6 6 6 5 4 3 3 2 2 1 0 1 1 2 2 2 2 2 2 2 1 1 1 2 1 1 1 1 1 1 2 2 2 2 3 3 3 4 4 5 6
7 6 6 6 6 5 5 5 5 4 3 3 2 1 1 2 2 2 2 2 2 1 1 1 1 1 2 1 1 1 1 1 1 2 3 2 3 3 3 3 4 4 5
5 5 5 5 5 5 5 6 5 4 3 2 1 2 2 1 2 2 2 2 2 1 1 0 0 1 1 1 1 0 0 1 1 1 3 3 3 2 2 2 2 3 4
4 4 4 4 4 4 5 5 5 5 4 3 3 3 2 1 1 1 2 2 2 1 1 1 1 1 2 2 1 1 1 1 1 1 2 4 4 3 3 2 2 3 4
Wind_Direction
186 161 128 114 108 104 100 99 99 98 98 97 94 91 89 87 87 88 88 88 87 88 89 89 87 86 86 84 82 83 84 81 78 76 77 78 80 79 78 77 76 73 75
159 135 124 114 109 106 104 99 100 99 99 100 98 94 90 88 88 88 85 86 86 86 88 87 87 86 87 85 83 81 84 82 77 72 72 76 79 80 79 79 78 77 75
118 119 116 114 110 107 106 102 99 100 99 99 99 96 93 91 89 87 84 84 82 82 84 87 85 86 84 82 80 80 82 82 78 74 71 71 79 83 81 79 77 76 74
111 109 112 108 109 109 107 107 102 102 101 101 100 97 95 93 91 88 87 84 81 79 80 84 84 84 83 80 78 76 78 79 78 74 65 66 76 85 84 79 75 73 74
96 99 108 105 108 109 107 108 108 104 103 104 101 99 96 94 92 89 88 86 83 80 78 80 82 82 80 78 75 75 76 77 75 69 64 63 69 83 85 83 78 75 72
91 95 105 106 106 108 108 109 110 107 107 106 104 102 99 96 94 90 89 87 86 83 81 80 80 79 77 75 74 74 76 77 75 70 63 62 68 81 85 85 84 80 75
93 91 101 101 103 105 111 111 113 110 108 108 105 103 100 98 95 92 91 88 88 85 82 79 78 80 78 72 70 70 73 77 75 69 60 59 74 84 83 84 81 79 77
97 86 88 91 96 100 106 111 117 115 112 109 107 105 102 101 98 94 92 91 90 86 82 78 75 76 76 70 67 65 70 75 74 67 58 59 73 81 82 81 79 74 74
85 81 78 84 86 89 95 105 111 112 113 109 106 104 102 102 101 97 94 91 91 89 85 80 76 73 73 69 65 62 63 70 72 67 60 62 71 76 76 78 76 76 75
79 72 69 69 77 81 87 100 108 106 106 103 100 98 97 97 98 95 91 89 89 89 86 81 77 71 67 63 62 60 57 62 64 58 57 62 65 71 72 72 71 74 74
81 71 71 67 66 75 86 90 99 102 99 97 96 95 92 85 84 87 87 86 85 87 85 79 75 70 65 57 55 53 54 55 61 54 51 60 62 65 72 73 70 70 69
104 85 75 74 71 73 85 89 90 93 91 90 91 94 90 85 81 82 84 81 80 80 80 77 70 61 56 52 47 48 50 49 57 53 53 59 59 65 72 71 67 67 63
138 116 86 84 83 80 80 88 89 91 93 90 87 90 92 87 80 76 74 71 70 71 68 64 59 53 54 55 52 49 47 51 48 45 45 47 42 46 58 62 61 58 50
139 133 115 94 89 89 89 89 93 89 90 89 89 92 93 86 76 71 72 71 68 71 65 59 56 53 52 54 55 50 44 48 42 38 39 39 35 35 39 43 41 48 44
146 143 140 115 100 101 99 95 95 88 91 98 99 98 98 92 85 73 69 70 68 70 68 60 56 54 49 46 45 44 39 40 36 31 34 35 36 35 33 37 34 39 34
159 156 152 136 119 109 108 109 109 103 103 103 100 105 107 102 92 84 74 68 64 71 72 65 63 60 54 50 41 39 39 39 39 34 32 31 35 34 31 32 30 28 28
170 161 159 151 129 121 118 116 110 110 110 105 105 108 106 104 98 89 84 71 61 76 76 66 60 56 51 48 32 29 35 34 40 38 36 34 28 31 35 33 27 23 20
166 165 165 154 140 133 126 120 111 107 107 109 111 106 106 104 104 93 81 75 72 78 74 78 65 58 42 30 14 3 15 20 26 30 46 42 37 32 31 33 30 27 24
167 167 167 155 147 142 129 118 110 109 103 102 107 102 102 103 106 99 85 70 81 77 76 78 65 62 47 20 5 5 2 358 358 33 52 49 52 47 38 37 35 29 21
165 164 165 159 150 139 119 102 90 89 89 98 103 100 106 111 112 104 92 73 80 85 79 81 76 52 56 32 23 11 347 339 7 33 41 53 49 49 43 39 35 23 16
161 158 164 164 162 152 149 150 151 151 140 120 109 108 111 114 114 104 93 84 74 91 96 96 89 73 44 39 49 12 354 356 17 24 29 48 43 38 42 35 26 18 8
171 169 169 172 173 170 170 172 166 154 159 166 128 113 118 117 116 118 109 112 93 83 77 82 79 89 53 40 71 64 2 342 346 353 4 37 41 38 35 19 13 9 3
180 179 176 178 178 176 161 135 114 91 74 63 166 183 158 141 132 126 133 123 108 100 121 163 136 125 133 350 36 117 131 247 306 317 350 12 17 18 4 360 359 356 354
190 183 178 178 176 176 163 156 160 169 178 201 202 206 197 155 147 136 142 131 124 121 129 196 132 137 141 187 316 7 167 173 210 301 311 331 345 339 335 342 336 336 350
179 175 177 171 173 174 172 171 176 188 189 173 166 170 181 184 177 171 156 145 154 156 166 159 118 180 178 189 198 216 14 19 209 222 279 303 317 297 299 295 304 320 334
162 162 166 167 175 177 177 176 184 189 182 174 189 194 199 201 195 189 173 173 185 187 193 209 200 217 210 197 208 210 198 204 231 231 263 290 295 295 301 283 280 303 318
Height
1531 1532 1533 1534 1534 1535 1535 1535 1535 1535 1535 1535 1535 1535 1535 1535 1535 1535 1535 1535 1535 1535 1535 1535 1535 1535 1535 1535 1535 1535 1535 1535 1535 1535 1535 1535 1535 1535 1535 1535 1534 1534 1534
1531 1532 1533 1534 1534 1535 1535 1535 1535 1536 1536 1536 1536 1536 1536 1536 1536 1536 1536 1536 1536 1536 1536 1536 1536 1536 1536 1536 1536 1536 1536 1536 1536 1536 1536 1536 1536 1536 1536 1536 1535 1535 1535
1531 1532 1532 1533 1534 1535 1535 1535 1535 1536 1536 1536 1536 1536 1536 1536 1536 1537 1537 1537 1537 1537 1537 1537 1537 1537 1537 1537 1537 1537 1537 1537 1537 1537 1537 1537 1537 1537 1537 1537 1536 1536 1535
1531 1531 1532 1533 1534 1534 1535 1535 1535 1536 1536 1536 1536 1537 1537 1537 1537 1537 1538 1538 1538 1537 1537 1537 1537 1537 1538 1538 1538 1538 1538 1538 1538 1538 1538 1538 1538 1538 1538 1537 1537 1537 1536
1530 1531 1532 1533 1533 1534 1535 1535 1535 1536 1536 1536 1536 1537 1537 1537 1538 1538 1538 1538 1538 1538 1538 1538 1538 1538 1538 1538 1538 1538 1539 1538 1538 1538 1538 1538 1538 1538 1538 1538 1537 1537 1537
1530 1531 1532 1533 1533 1533 1534 1535 1535 1535 1536 1536 1536 1537 1537 1537 1538 1538 1538 1538 1539 1539 1539 1539 1539 1539 1539 1539 1539 1539 1539 1539 1539 1539 1539 1539 1539 1539 1538 1538 1538 1537 1537
1529 1531 1532 1532 1533 1533 1534 1534 1535 1535 1535 1536 1536 1536 1537 1537 1538 1538 1539 1539 1539 1539 1539 1539 1539 1539 1539 1539 1539 1539 1539 1539 1539 1539 1539 1539 1539 1539 1539 1538 1538 1537 1537
1529 1530 1531 1531 1532 1533 1533 1534 1534 1535 1535 1535 1536 1536 1537 1537 1538 1538 1538 1539 1539 1539 1539 1539 1539 1539 1539 1539 1539 1539 1539 1539 1539 1539 1539 1539 1539 1539 1538 1538 1538 1537 1537
1529 1529 1530 1531 1531 1532 1532 1533 1534 1534 1535 1535 1536 1536 1537 1537 1537 1538 1538 1538 1539 1539 1539 1539 1539 1539 1539 1539 1539 1539 1539 1539 1539 1539 1539 1539 1539 1538 1538 1538 1537 1537 1536
1528 1529 1529 1530 1530 1531 1531 1532 1533 1534 1534 1535 1535 1536 1536 1537 1537 1537 1538 1538 1538 1538 1538 1538 1538 1538 1538 1538 1538 1538 1538 1538 1538 1538 1538 1538 1538 1538 1537 1537 1536 1536 1535
1527 1528 1528 1529 1529 1530 1530 1531 1532 1533 1534 1534 1535 1536 1536 1536 1536 1537 1537 1537 1537 1538 1538 1538 1538 1538 1538 1538 1538 1538 1537 1537 1537 1537 1537 1537 1537 1537 1536 1536 1535 1535 1534
1525 1527 1527 1528 1528 1529 1530 1530 1531 1532 1533 1533 1534 1535 1535 1536 1536 1536 1536 1536 1537 1537 1537 1537 1537 1537 1537 1537 1537 1537 1537 1537 1537 1536 1536 1536 1536 1536 1535 1535 1534 1534 1533
1524 1525 1526 1527 1527 1528 1529 1529 1530 1531 1532 1533 1533 1534 1534 1535 1535 1535 1535 1535 1535 1535 1536 1536 1536 1536 1536 1536 1536 1536 1536 1536 1536 1535 1535 1535 1535 1534 1534 1533 1533 1532 1532
1523 1524 1525 1526 1526 1527 1528 1528 1529 1530 1531 1531 1532 1533 1533 1533 1534 1534 1534 1534 1534 1534 1534 1534 1534 1534 1535 1535 1535 1534 1534 1534 1534 1534 1534 1534 1533 1533 1532 1532 1531 1531 1530
1521 1522 1523 1524 1525 1526 1526 1527 1528 1528 1529 1530 1531 1531 1531 1532 1532 1532 1532 1532 1533 1532 1532 1532 1533 1532 1533 1533 1533 1533 1533 1533 1533 1532 1532 1532 1531 1531 1530 1530 1530 1529 1528
1520 1521 1522 1523 1524 1524 1525 1525 1526 1527 1527 1528 1529 1529 1529 1530 1530 1530 1530 1531 1531 1531 1531 1531 1531 1531 1531 1531 1531 1531 1531 1531 1531 1530 1530 1530 1529 1529 1528 1528 1528 1527 1527
1518 1519 1520 1521 1522 1523 1523 1524 1524 1525 1525 1526 1527 1527 1528 1528 1528 1528 1528 1529 1529 1529 1529 1529 1529 1529 1529 1529 1529 1529 1529 1529 1529 1528 1528 1527 1527 1527 1526 1526 1525 1525 1525
1516 1518 1519 1519 1520 1521 1521 1522 1523 1523 1524 1524 1524 1525 1525 1526 1526 1526 1527 1527 1527 1527 1528 1528 1527 1527 1527 1527 1527 1526 1527 1527 1527 1526 1526 1525 1525 1524 1524 1524 1523 1523 1522
1514 1516 1517 1517 1518 1519 1519 1520 1521 1521 1522 1522 1522 1522 1523 1523 1524 1525 1525 1525 1525 1526 1526 1526 1526 1526 1525 1525 1524 1524 1524 1524 1524 1524 1524 1523 1523 1522 1522 1521 1521 1520 1519
1512 1513 1514 1515 1516 1517 1517 1518 1518 1519 1520 1520 1520 1520 1521 1521 1521 1522 1523 1523 1523 1524 1524 1524 1524 1524 1523 1522 1522 1521 1522 1522 1522 1522 1521 1521 1521 1520 1520 1519 1518 1517 1516
1509 1510 1511 1512 1513 1514 1514 1515 1515 1516 1517 1518 1518 1519 1519 1519 1519 1520 1520 1521 1521 1521 1521 1521 1521 1521 1521 1520 1520 1519 1519 1519 1519 1519 1519 1519 1518 1518 1517 1516 1515 1514 1513
1506 1507 1508 1509 1510 1511 1512 1512 1513 1514 1515 1516 1516 1516 1517 1517 1517 1517 1518 1518 1518 1519 1519 1519 1519 1518 1518 1518 1518 1517 1517 1518 1517 1517 1516 1516 1515 1515 1514 1513 1512 1511 1510
1503 1504 1505 1506 1507 1508 1509 1510 1511 1512 1512 1513 1514 1514 1514 1515 1515 1515 1516 1516 1516 1516 1516 1516 1516 1516 1516 1516 1516 1516 1515 1514 1514 1514 1513 1513 1512 1512 1511 1510 1509 1508 1506
1500 1502 1503 1504 1504 1505 1506 1507 1507 1508 1509 1510 1511 1511 1512 1512 1512 1513 1513 1513 1513 1513 1514 1514 1514 1514 1514 1514 1514 1514 1514 1513 1513 1511 1510 1510 1509 1509 1507 1506 1505 1504 1503
1498 1499 1500 1501 1502 1502 1503 1504 1505 1505 1506 1507 1508 1509 1509 1509 1510 1510 1510 1510 1511 1511 1511 1511 1511 1512 1512 1511 1511 1511 1511 1511 1510 1509 1506 1506 1505 1505 1504 1503 1502 1501 1499
1495 1497 1498 1498 1499 1500 1500 1501 1502 1503 1503 1504 1505 1505 1506 1506 1507 1507 1507 1508 1508 1508 1508 1509 1509 1509 1509 1509 1508 1508 1508 1508 1507 1507 1505 1502 1501 1501 1500 1499 1499 1497 1496